Location: Bretagne
(43.8474°N, 0.4650°W)
Time: 06:42:49
(UTC+00:00)

CZ-2D R/B - Pass Details

Date: 15 January 2026
Orbit: 525 x 595 km, 98.0° (Epoch: 10 February)

Event Time Altitude Azimuth Distance (km) Brightness Sun altitude
Rises 18:33:24 0° 170° (S) 2,678 6.9 -18.2°
Reaches altitude 10° 18:35:32 10° 172° (S) 1,783 6.0 -18.6°
Maximum altitude 18:39:21 73° 257° (WSW) 558 3.4 -19.3°
Drops below altitude 10° 18:43:11 10° 343° (NNW) 1,779 6.0 -20.0°
Sets 18:45:18 0° 345° (NNW) 2,671 6.9 -20.3°
